Biloxi, MS

9:07 AM CDT on October 18, 2017 (GMT -0500)
Keesler Air Force Base

Weather History for KBIX - September, 2014

Change the Weather History Date:

Wednesday, September 3, 2014

  Actual Average Record
Temperature  
Mean Temperature 82 °F -  
Max Temperature 91 °F 88 °F 96 °F (1997)
Min Temperature 73 °F 73 °F 66 °F (1952)
Cooling Degree Days 16    
Growing Degree Days 32 (Base 50)    
Moisture  
Dew Point 72 °F    
Average Humidity 75    
Maximum Humidity 94    
Minimum Humidity 52    
Precipitation  
Precipitation 0.02 in - - ()
Sea Level Pressure  
Sea Level Pressure 30.03 in    
Wind  
Wind Speed 4 mph (ENE)    
Max Wind Speed 8 mph    
Max Gust Speed -    
Visibility 10 miles    
Events      
Averages and records for this station are not official NWS values.
T = Trace of Precipitation, MM = Missing Value Source: NWS Daily Summary

Daily Weather History Graph

Daily Weather History Graph

Search for Another Location

Airport or City:

Trip Planner

Search our weather history database for the weather conditions in past years. The results will help you decide how hot, cold, wet, or windy it might be!

Date:

Astronomy

Sep. 03, 2014 Rise Set
Actual Time 6:33 AM CDT 7:16 PM CDT
Civil Twilight 6:09 AM CDT 7:40 PM CDT
Nautical Twilight 5:40 AM CDT 8:09 PM CDT
Astronomical Twilight 5:11 AM CDT 8:38 PM CDT
Moon 2:44 PM CDT (9/3) 12:40 AM CDT (9/3)
Length of Visible Light 13h 31m
Length of Day
12h 42m
Waxing Gibbous, 64% of the Moon is Illuminated
Sep 3
Waxing Gibbous
Sep 8
Full
Sep 15
Last Quarter
Sep 24
New
Oct 1
First Quarter

Hourly Weather History & Observations

Time (CDT) Temp. Heat Index Dew Point Humidity Pressure Visibility Wind Dir Wind Speed Gust Speed Precip Events Conditions
12:51 AM 75.2 °F - 73.4 °F 94% 30.01 in 10.0 mi East 1.2 mph - N/A   Clear
12:58 AM 75.7 °F - 72.9 °F 91% 30.02 in 10.0 mi East 2.3 mph - 0.00 in   Clear
1:58 AM 76.6 °F - 73.4 °F 90% 29.97 in 10.0 mi ESE 4.6 mph - 0.02 in   Partly Cloudy
2:58 AM 78.3 °F - 74.1 °F 87% 29.96 in 10.0 mi East 5.8 mph - N/A   Scattered Clouds
3:58 AM 74.8 °F - 73.0 °F 94% 30.02 in 10.0 mi Variable 5.8 mph - N/A   Partly Cloudy
4:58 AM 73.9 °F - 72.0 °F 93% 30.02 in 10.0 mi NE 8.1 mph - N/A   Overcast
5:58 AM 74.1 °F - 71.4 °F 91% 30.03 in 10.0 mi Variable 3.5 mph - N/A   Overcast
6:58 AM 74.3 °F - 71.2 °F 90% 30.05 in 10.0 mi NNE 2.3 mph - N/A   Overcast
7:58 AM 74.7 °F - 71.8 °F 91% 30.06 in 10.0 mi NE 8.1 mph - N/A   Partly Cloudy
8:58 AM 78.1 °F - 70.9 °F 78% 30.05 in 10.0 mi NNE 3.5 mph - N/A   Clear
9:58 AM 84.2 °F 89.3 °F 71.4 °F 65% 30.07 in 10.0 mi NNE 5.8 mph - N/A   Clear
10:58 AM 86.9 °F 92.1 °F 70.5 °F 58% 30.07 in 10.0 mi NE 3.5 mph - N/A   Clear
11:58 AM 88.7 °F 93.5 °F 69.8 °F 53% 30.07 in 10.0 mi NNW 4.6 mph - N/A   Clear
12:58 PM 90.1 °F 95.8 °F 70.5 °F 52% 30.05 in 10.0 mi North 5.8 mph - N/A   Clear
1:58 PM 90.1 °F 96.8 °F 71.6 °F 54% 30.04 in 10.0 mi SSW 6.9 mph - N/A   Clear
2:58 PM 90.0 °F 97.9 °F 72.7 °F 57% 30.02 in 10.0 mi South 8.1 mph - N/A   Clear
3:58 PM 89.6 °F 97.7 °F 73.0 °F 58% 30.00 in 10.0 mi SSW 6.9 mph - N/A   Clear
4:58 PM 89.2 °F 95.9 °F 71.6 °F 56% 30.00 in 10.0 mi WSW 5.8 mph - N/A   Mostly Cloudy
5:58 PM 86.5 °F 92.9 °F 72.0 °F 62% 30.00 in 10.0 mi SW 5.8 mph - N/A   Mostly Cloudy
6:58 PM 84.0 °F 90.5 °F 73.4 °F 70% 30.02 in 10.0 mi Calm Calm - N/A   Overcast
7:58 PM 82.9 °F 88.8 °F 73.0 °F 72% 30.02 in 10.0 mi Calm Calm - N/A   Overcast
8:58 PM 81.9 °F 87.3 °F 73.2 °F 75% 30.04 in 10.0 mi Calm Calm - N/A   Overcast
9:58 PM 80.1 °F 84.6 °F 74.3 °F 82% 30.04 in 10.0 mi Calm Calm - N/A   Mostly Cloudy
10:58 PM 80.8 °F 86.7 °F 75.6 °F 84% 30.05 in 10.0 mi Calm Calm - N/A   Clear
11:58 PM 80.1 °F 84.6 °F 74.1 °F 82% 30.04 in 10.0 mi Calm Calm - N/A   Partly Cloudy